Home > Weather > Turin > Past weeks

Flag for Italy Past Weather in Turin, Italy — Yesterday and Last 2 Weeks

Now
55 °F

Thunderstorms. Scattered clouds.


Feels Like: 52 °F
Forecast: 53 / 70 °F
Wind: 14 mph from North

Location: Torino / Bric Della Croce

Current Time: May 31, 2016 at 4:22:55 PM

Latest Report: May 31, 2016 at 3:55 PM


Visibility: N/A

Pressure: 29.86 "Hg

Humidity: 82%

Dew Point: 50 °F

Location of TurinLocation

Past Weather in Turin — Graph

°F

Turin Temperature Yesterday

Maximum temperature yesterday: 66 °F (at 3:55 PM)
Minimum temperature yesterday: 54 °F (at 5:55 AM)
Average temperature yesterday: 58 °F

High & Low Weather Summary for the Past Weeks

 TemperatureHumidityPressure
High73 °F (May 27, 3:55 PM)100% (May 17, 4:55 AM)30.12 "Hg (May 17, 4:55 AM)
Low46 °F (May 17, 7:55 AM)20% (May 24, 3:55 PM)29.74 "Hg (May 19, 8:55 AM)
Average60 °F68%29.93 "Hg
* Reported May 16 2:55 PM — May 31 2:55 PM, Turin, Weather by CustomWeather, © 2016

Note: Actual official high and low records may vary slightly from our data, if they occured in-between our weather recording intervals... More about our weather records

Advertising

Turin Weather History for the Previous 24 Hours

Scroll right to see more
 ConditionsComfort  
Time TempWeatherWind HumidityBarometerVisibility
2:55 PM
Tue, May 31
68 °FPartly sunny.12 mph64%29.89 "HgN/A
1:55 PM64 °FPartly sunny.8 mph68%29.89 "HgN/A
12:55 PM63 °FScattered clouds.7 mph77%29.89 "HgN/A
11:55 AM59 °FPartly sunny.3 mph100%29.89 "HgN/A
10:55 AM59 °FPartly sunny.3 mph100%29.89 "HgN/A
9:55 AM57 °FBroken clouds.No wind100%29.89 "HgN/A
8:55 AM55 °FScattered clouds.No wind100%29.89 "HgN/A
7:55 AM55 °FScattered clouds.No wind100%29.86 "HgN/A
6:55 AM55 °FPassing clouds.No wind100%29.86 "HgN/A
5:55 AM55 °FFog.No wind100%29.86 "Hg0 mi
4:55 AM55 °FFog.No wind100%29.86 "Hg0 mi
3:55 AM54 °FFog.No wind100%29.86 "Hg0 mi
2:55 AM55 °FFog.5 mph100%29.89 "Hg0 mi
1:55 AM55 °FFog.No wind100%29.89 "Hg0 mi
12:55 AM55 °FFog.No wind94%29.86 "Hg0 mi
11:55 PM
Mon, May 30
55 °FLight rain. Fog.6 mph100%29.86 "Hg0 mi
10:55 PM55 °FLight rain. Fog.5 mph100%29.86 "Hg0 mi
9:55 PM57 °FFog.3 mph100%29.83 "Hg0 mi
8:55 PM59 °FFog.6 mph100%29.83 "Hg0 mi
7:55 PM59 °FThunderstorms. Scattered clouds.14 mph94%29.80 "HgN/A
6:55 PM59 °FThunderstorms. Scattered clouds.13 mph94%29.80 "HgN/A
5:55 PM63 °FThunderstorms. Scattered clouds.12 mph77%29.80 "HgN/A
4:55 PM66 °FScattered clouds.No wind60%29.80 "HgN/A
Weather by CustomWeather, © 2016

See weather overviewHow to use our weather pages